| time (UTC) | temp C | wind direction | speed KPH | gust KPH | rain 1hr cm | rain 24hr cm | rain mn cm | humidity % | barometer mb |
| 20260507080024 | 18 | 192 | 0.0 | 6.4 | 0.00 | 0.00 | 0.00 | 70 | 1011.7 |
| 20260507074517 | 18 | 162 | 0.0 | 6.4 | 0.00 | 0.00 | 0.00 | 69 | 1011.7 |
| 20260507073015 | 19 | 153 | 1.6 | 6.4 | 0.00 | 0.00 | 0.00 | 68 | 1011.9 |
| 20260507071516 | 19 | 167 | 1.6 | 6.4 | 0.00 | 0.00 | 0.00 | 67 | 1011.9 |
| 20260507070015 | 19 | 195 | 1.6 | 8.0 | 0.00 | 0.00 | 0.00 | 66 | 1012.0 |
| 20260507064505 | 20 | 139 | 3.2 | 6.4 | 0.00 | 0.00 | 0.00 | 65 | 1012.2 |
| 20260507063001 | 20 | 132 | 0.0 | 4.8 | 0.00 | 0.00 | 0.00 | 65 | 1012.2 |
| 20260507061559 | 20 | 144 | 0.0 | 6.4 | 0.00 | 0.00 | 0.00 | 64 | 1012.4 |
| 20260507060059 | 20 | 127 | 4.8 | 11.3 | 0.00 | 0.00 | 0.00 | 63 | 1012.4 |
| 20260507054554 | 20 | 143 | 3.2 | 8.0 | 0.00 | 0.00 | 0.00 | 62 | 1012.7 |
| 20260507053051 | 21 | 158 | 1.6 | 8.0 | 0.00 | 0.00 | 0.00 | 62 | 1012.7 |
| 20260507051549 | 21 | 148 | 4.8 | 8.0 | 0.00 | 0.00 | 0.00 | 62 | 1012.6 |
| 20260507050103 | 21 | 149 | 3.2 | 6.4 | 0.00 | 0.00 | 0.00 | 64 | 1012.5 |
| 20260507044552 | 21 | 140 | 1.6 | 6.4 | 0.00 | 0.00 | 0.00 | 74 | 1012.5 |
| 20260507043042 | 22 | 316 | 0.0 | 0.0 | 0.00 | 0.00 | 0.00 | 76 | 1012.3 |
| 20260507041640 | 22 | 316 | 0.0 | 0.0 | 0.00 | 0.00 | 0.00 | 76 | 1012.3 |
| 20260507040037 | 23 | 316 | 0.0 | 0.0 | 0.00 | 0.00 | 0.00 | 76 | 1012.2 |
| 20260507034540 | 23 | 316 | 0.0 | 0.0 | 0.00 | 0.00 | 0.00 | 75 | 1012.1 |
| 20260507033039 | 23 | 316 | 0.0 | 0.0 | 0.00 | 0.00 | 0.00 | 75 | 1011.9 |
| 20260507031533 | 24 | 316 | 0.0 | 0.0 | 0.00 | 0.00 | 0.00 | 74 | 1011.9 |
| 20260507030034 | 24 | 304 | 0.0 | 6.4 | 0.00 | 0.00 | 0.00 | 75 | 1011.7 |
| 20260507024528 | 25 | 323 | 0.0 | 3.2 | 0.00 | 0.00 | 0.00 | 75 | 1011.6 |
| 20260507023023 | 25 | 326 | 0.0 | 6.4 | 0.00 | 0.00 | 0.00 | 75 | 1011.4 |
| 20260507021538 | 25 | 325 | 0.0 | 8.0 | 0.00 | 0.00 | 0.00 | 73 | 1011.4 |
| 20260507020024 | 26 | 335 | 3.2 | 11.3 | 0.00 | 0.00 | 0.00 | 71 | 1011.2 |
| 20260507014521 | 26 | 313 | 3.2 | 9.7 | 0.00 | 0.00 | 0.00 | 69 | 1011.1 |
| 20260507013015 | 27 | 336 | 1.6 | 9.7 | 0.00 | 0.00 | 0.00 | 66 | 1010.9 |
| 20260507011520 | 27 | 344 | 3.2 | 11.3 | 0.00 | 0.00 | 0.00 | 65 | 1010.9 |
| 20260507010027 | 28 | 326 | 1.6 | 12.9 | 0.00 | 0.00 | 0.00 | 64 | 1010.8 |
| 20260507004510 | 27 | 305 | 4.8 | 19.3 | 0.00 | 0.00 | 0.00 | 66 | 1010.6 |
| 20260507003009 | 28 | 323 | 6.4 | 14.5 | 0.00 | 0.00 | 0.00 | 64 | 1010.6 |
| 20260507001506 | 28 | 350 | 4.8 | 14.5 | 0.00 | 0.00 | 0.00 | 64 | 1010.5 |
| 20260507000004 | 28 | 9 | 8.0 | 17.7 | 0.00 | 0.00 | 0.00 | 61 | 1010.5 |
| 20260506234501 | 28 | 339 | 9.7 | 22.5 | 0.00 | 0.00 | 0.00 | 56 | 1010.5 |
| 20260506233100 | 28 | 318 | 9.7 | 19.3 | 0.00 | 0.00 | 0.00 | 55 | 1010.6 |
| 20260506231557 | 28 | 351 | 11.3 | 22.5 | 0.00 | 0.00 | 0.00 | 57 | 1010.7 |
| 20260506230057 | 28 | 320 | 9.7 | 20.9 | 0.00 | 0.00 | 0.00 | 56 | 1010.8 |
| 20260506224551 | 29 | 337 | 8.0 | 19.3 | 0.00 | 0.00 | 0.00 | 54 | 1010.8 |
| 20260506223056 | 29 | 349 | 11.3 | 19.3 | 0.00 | 0.00 | 0.00 | 52 | 1010.9 |
| 20260506221546 | 28 | 328 | 11.3 | 22.5 | 0.00 | 0.00 | 0.00 | 54 | 1011.0 |
| 20260506220043 | 29 | 305 | 8.0 | 20.9 | 0.00 | 0.00 | 0.00 | 48 | 1011.2 |
| 20260506214543 | 29 | 42 | 9.7 | 20.9 | 0.00 | 0.00 | 0.00 | 48 | 1011.3 |
| 20260506213036 | 30 | 322 | 8.0 | 19.3 | 0.00 | 0.00 | 0.00 | 45 | 1011.4 |
| 20260506211530 | 30 | 302 | 8.0 | 20.9 | 0.00 | 0.00 | 0.00 | 46 | 1011.5 |
| 20260506210034 | 29 | 355 | 9.7 | 20.9 | 0.00 | 0.00 | 0.00 | 49 | 1011.8 |
| 20260506204536 | 29 | 330 | 8.0 | 19.3 | 0.00 | 0.00 | 0.00 | 52 | 1011.9 |
| 20260506203024 | 29 | 54 | 6.4 | 22.5 | 0.00 | 0.00 | 0.00 | 53 | 1012.0 |
| 20260506201513 | 28 | 307 | 9.7 | 22.5 | 0.00 | 0.00 | 0.00 | 56 | 1012.1 |
| 20260506200009 | 28 | 3 | 11.3 | 20.9 | 0.00 | 0.00 | 0.00 | 61 | 1012.3 |
| 20260506194511 | 28 | 89 | 14.5 | 20.9 | 0.00 | 0.00 | 0.00 | 66 | 1012.4 |
| 20260506193004 | 28 | 328 | 11.3 | 20.9 | 0.00 | 0.00 | 0.00 | 67 | 1012.6 |
| 20260506191501 | 28 | 39 | 8.0 | 22.5 | 0.00 | 0.00 | 0.00 | 67 | 1013.0 |
| 20260506190100 | 27 | 24 | 9.7 | 20.9 | 0.00 | 0.00 | 0.00 | 69 | 1013.1 |
| 20260506184604 | 27 | 330 | 9.7 | 19.3 | 0.00 | 0.00 | 0.00 | 69 | 1013.2 |
| 20260506183103 | 27 | 5 | 11.3 | 20.9 | 0.00 | 0.00 | 0.00 | 69 | 1013.4 |
| 20260506181652 | 27 | 327 | 6.4 | 20.9 | 0.00 | 0.00 | 0.00 | 70 | 1013.4 |
| 20260506180048 | 27 | 356 | 9.7 | 22.5 | 0.00 | 0.00 | 0.00 | 69 | 1013.4 |
| 20260506174545 | 27 | 36 | 9.7 | 17.7 | 0.00 | 0.00 | 0.00 | 68 | 1013.4 |
| 20260506173052 | 27 | 2 | 9.7 | 17.7 | 0.00 | 0.00 | 0.00 | 65 | 1013.3 |
| 20260506171546 | 27 | 345 | 6.4 | 16.1 | 0.00 | 0.00 | 0.00 | 65 | 1013.4 |
| 20260506170043 | 26 | 324 | 8.0 | 19.3 | 0.00 | 0.00 | 0.00 | 68 | 1013.4 |
| 20260506164545 | 26 | 314 | 8.0 | 19.3 | 0.00 | 0.00 | 0.00 | 70 | 1013.4 |
| 20260506163031 | 26 | 299 | 6.4 | 17.7 | 0.00 | 0.00 | 0.00 | 71 | 1013.4 |
| 20260506161537 | 26 | 321 | 8.0 | 19.3 | 0.00 | 0.00 | 0.00 | 70 | 1013.3 |
| 20260506160037 | 26 | 4 | 6.4 | 14.5 | 0.00 | 0.00 | 0.00 | 66 | 1013.2 |
| 20260506154522 | 26 | 357 | 3.2 | 14.5 | 0.00 | 0.03 | 0.00 | 64 | 1013.2 |
| 20260506153019 | 26 | 301 | 4.8 | 14.5 | 0.00 | 0.03 | 0.00 | 62 | 1013.0 |
| 20260506151527 | 25 | 316 | 1.6 | 11.3 | 0.00 | 0.03 | 0.00 | 59 | 1013.0 |
| 20260506150024 | 25 | 62 | 1.6 | 9.7 | 0.00 | 0.03 | 0.00 | 60 | 1013.0 |
| 20260506144507 | 24 | 331 | 0.0 | 11.3 | 0.00 | 0.03 | 0.00 | 59 | 1012.9 |
| 20260506143010 | 23 | 22 | 0.0 | 0.0 | 0.00 | 0.03 | 0.00 | 59 | 1012.8 |
| 20260506141559 | 22 | 328 | 0.0 | 1.6 | 0.00 | 0.03 | 0.00 | 61 | 1012.8 |
| 20260506140104 | 21 | 200 | 0.0 | 0.0 | 0.00 | 0.03 | 0.00 | 65 | 1012.7 |
| 20260506134550 | 20 | 202 | 0.0 | 0.0 | 0.00 | 0.03 | 0.00 | 72 | 1012.5 |
| 20260506133049 | 18 | 192 | 0.0 | 0.0 | 0.00 | 0.03 | 0.00 | 76 | 1012.4 |
| 20260506131544 | 18 | 192 | 0.0 | 0.0 | 0.00 | 0.03 | 0.00 | 78 | 1012.3 |
| 20260506130053 | 17 | 141 | 0.0 | 1.6 | 0.00 | 0.03 | 0.00 | 78 | 1012.1 |
| 20260506124538 | 17 | 152 | 0.0 | 1.6 | 0.00 | 0.03 | 0.00 | 77 | 1012.0 |
| 20260506123137 | 18 | 148 | 0.0 | 0.0 | 0.00 | 0.03 | 0.00 | 77 | 1012.0 |
| 20260506121530 | 18 | 186 | 0.0 | 6.4 | 0.00 | 0.03 | 0.00 | 77 | 1011.5 |
| 20260506120031 | 18 | 160 | 1.6 | 6.4 | 0.00 | 0.03 | 0.00 | 76 | 1011.2 |
| 20260506114538 | 18 | 176 | 0.0 | 4.8 | 0.00 | 0.03 | 0.00 | 76 | 1011.0 |
| 20260506113022 | 18 | 152 | 1.6 | 6.4 | 0.00 | 0.03 | 0.00 | 75 | 1010.9 |
| 20260506111518 | 19 | 142 | 0.0 | 0.0 | 0.00 | 0.03 | 0.00 | 74 | 1010.9 |
| 20260506110014 | 20 | 151 | 0.0 | 0.0 | 0.00 | 0.03 | 0.00 | 73 | 1010.9 |
| 20260506104510 | 20 | 158 | 0.0 | 0.0 | 0.00 | 0.03 | 0.00 | 72 | 1010.8 |
| 20260506103014 | 20 | 175 | 0.0 | 8.0 | 0.00 | 0.03 | 0.00 | 72 | 1010.8 |
| 20260506101504 | 20 | 184 | 1.6 | 8.0 | 0.00 | 0.03 | 0.00 | 72 | 1010.8 |
| 20260506100104 | 20 | 210 | 4.8 | 11.3 | 0.00 | 0.03 | 0.00 | 71 | 1010.8 |
| 20260506094600 | 21 | 184 | 0.0 | 8.0 | 0.00 | 0.03 | 0.00 | 71 | 1010.9 |
| 20260506093103 | 21 | 211 | 0.0 | 3.2 | 0.00 | 0.03 | 0.00 | 71 | 1010.9 |
| 20260506091554 | 21 | 171 | 0.0 | 6.4 | 0.00 | 0.03 | 0.00 | 71 | 1010.9 |
| 20260506090051 | 21 | 156 | 1.6 | 8.0 | 0.00 | 0.03 | 0.00 | 71 | 1011.0 |
| 20260506084550 | 21 | 139 | 0.0 | 6.4 | 0.00 | 0.03 | 0.00 | 71 | 1011.2 |
| 20260506083044 | 21 | 165 | 1.6 | 6.4 | 0.00 | 0.03 | 0.00 | 71 | 1011.1 |
| 20260506081539 | 21 | 162 | 0.0 | 4.8 | 0.00 | 0.03 | 0.00 | 71 | 1011.2 |